"Pseudo-MPEC" for CA1940P

Created 2019 May 16 3:07:08 UT using Find_Orb

Click here for an explanation of pseudo-MPECs

 
 Astrometry: 
     CA1940P  C2019 05 09n-^;CcAstrometry*mRO^]Vsa7A3B1+ftx/:-D88-wst6,gh5%%F954
     CA1940P  C2019 05 09yf]tS%`^EZ]/ODSO]E\4r^..EPPredacted;ZUUZ.ur)OQi3w#J`954
     CA1940P  C2019 05 09Ro9',click8=@eV(sUXJihYJvUBY*sHqJB0XkIhere:w1q'gSTB2954
     CA1940P  C2019 05 09X2T8\PmX0QQ28x2Ki6?@RPk3Eg:1Fe8o_tY6LFl(8k:c4*for(U6954
     CA1940P  C2019 05 093IQEkE0kLO)hEhcXXi$Jqqoe4*J=9`P9dexplanation[9/I,y]u954

Station data:
(954) Teide Observatory  (N28.298383 W16.509400)  Canary Islands (Spain).

Orbital elements:  CA1940P
   Perihelion 2019 May 19.235819 +/- 45.8 TT =  5:39:34 (JD 2458622.735819)
Epoch 2019 May  9.0 TT = JDT 2458612.5   Earth MOID: 0.3233   Ma: 0.0549
M 357.05606095 +/- 29               (J2000 ecliptic)          AutoNEOCP
n   0.28761147 +/- 0.217            Peri.  177.08367 +/- 60
a   2.27299550 +/- 1.14             Node    62.72795 +/- 21
e   0.4124195 +/- 0.179             Incl.    6.06418 +/- 2.6
P   3.43                   H 21.1   G  0.15   U 11.7  SR
q 1.33556774 +/- 0.275    Q 3.21042327 +/- 1.73
From 5 observations 2019 May 9 (27.4 min); mean residual 0".46
Residuals in arcseconds: 
190509 954  .03-  .56-    190509 954  .15-  .43+    190509 954  .10-  .87-    
190509 954  .06+  .16+    190509 954  .20+  .85+    

Ephemerides (geocentric):
Date (UTC) HH   RA              Dec         delta   r     elong  mag " sig PA
---- -- -- --  -------------   -----------  ------ ------ -----  --- ---- ---
2019 05 16 03  16 17 54.808   -19 05 07.34  .32991 1.3359 168.6 19.9  38d 170
2019 05 16 04  16 17 55.653   -19 05 57.50  .32986 1.3359 168.6 19.9  38d 171
2019 05 16 05  16 17 56.496   -19 06 47.67  .32981 1.3359 168.6 19.9  39d 171
2019 05 16 06  16 17 57.337   -19 07 37.86  .32976 1.3359 168.7 19.9  39d 171
2019 05 16 07  16 17 58.176   -19 08 28.07  .32971 1.3359 168.7 19.9  39d 171
2019 05 16 08  16 17 59.013   -19 09 18.29  .32967 1.3359 168.7 19.9  40d 172
2019 05 16 09  16 17 59.849   -19 10 08.52  .32962 1.3358 168.8 19.9  40d 172
2019 05 16 10  16 18 00.682   -19 10 58.78  .32957 1.3358 168.8 19.9  40d 172
2019 05 16 11  16 18 01.513   -19 11 49.04  .32952 1.3358 168.8 19.9  41d 172
2019 05 16 12  16 18 02.342   -19 12 39.33  .32947 1.3358 168.9 19.9  41d 172
2019 05 16 13  16 18 03.169   -19 13 29.62  .32943 1.3358 168.9 19.9  42d 172
2019 05 16 14  16 18 03.994   -19 14 19.94  .32938 1.3358 169.0 19.9  42d 173
2019 05 16 15  16 18 04.818   -19 15 10.26  .32933 1.3358 169.0 19.9  42d 173
2019 05 16 16  16 18 05.639   -19 16 00.61  .32929 1.3358 169.0 19.9  43d 173
2019 05 16 17  16 18 06.458   -19 16 50.96  .32924 1.3358 169.1 19.9  43d 173
2019 05 16 18  16 18 07.276   -19 17 41.34  .32919 1.3358 169.1 19.9  44d 173
2019 05 16 19  16 18 08.091   -19 18 31.72  .32915 1.3358 169.1 19.9  44d 173
2019 05 16 20  16 18 08.905   -19 19 22.13  .32910 1.3358 169.2 19.9  45d 173
2019 05 16 21  16 18 09.716   -19 20 12.54  .32905 1.3358 169.2 19.9  45d 173
2019 05 16 22  16 18 10.526   -19 21 02.97  .32901 1.3358 169.2 19.9  46d 174
2019 05 16 23  16 18 11.334   -19 21 53.42  .32896 1.3357 169.3 19.9  46d 174
2019 05 17 00  16 18 12.140   -19 22 43.88  .32892 1.3357 169.3 19.9  47d 174
2019 05 17 01  16 18 12.944   -19 23 34.35  .32887 1.3357 169.4 19.9  47d 174
2019 05 17 02  16 18 13.746   -19 24 24.84  .32883 1.3357 169.4 19.9  48d 174
2019 05 17 03  16 18 14.546   -19 25 15.34  .32879 1.3357 169.4 19.9  49d 174
2019 05 17 04  16 18 15.345   -19 26 05.86  .32874 1.3357 169.5 19.9  49d 174
2019 05 17 05  16 18 16.141   -19 26 56.39  .32870 1.3357 169.5 19.9  49d 173
2019 05 17 06  16 18 16.936   -19 27 46.93  .32865 1.3357 169.5 19.9  50d 173
2019 05 17 07  16 18 17.728   -19 28 37.49  .32861 1.3357 169.6 19.9  50d 173
2019 05 17 08  16 18 18.519   -19 29 28.06  .32857 1.3357 169.6 19.9  50d 173
2019 05 17 09  16 18 19.308   -19 30 18.64  .32852 1.3357 169.6 19.9  51d 172
2019 05 17 10  16 18 20.095   -19 31 09.24  .32848 1.3357 169.7 19.9  51d 172
2019 05 17 11  16 18 20.880   -19 31 59.85  .32844 1.3357 169.7 19.9  51d 172
2019 05 17 12  16 18 21.664   -19 32 50.48  .32840 1.3357 169.8 19.9  51d 172
2019 05 17 13  16 18 22.445   -19 33 41.11  .32835 1.3357 169.8 19.9  51d 172
2019 05 17 14  16 18 23.225   -19 34 31.77  .32831 1.3357 169.8 19.9  52d 171
2019 05 17 15  16 18 24.003   -19 35 22.43  .32827 1.3357 169.9 19.9  52d 171
2019 05 17 16  16 18 24.779   -19 36 13.11  .32823 1.3357 169.9 19.9  52d 171
2019 05 17 17  16 18 25.553   -19 37 03.80  .32819 1.3356 169.9 19.9  52d 171
2019 05 17 18  16 18 26.325   -19 37 54.50  .32815 1.3356 170.0 19.9  52d 171
2019 05 17 19  16 18 27.096   -19 38 45.21  .32811 1.3356 170.0 19.9  52d 171
2019 05 17 20  16 18 27.864   -19 39 35.94  .32807 1.3356 170.0 19.9  52d 171
2019 05 17 21  16 18 28.631   -19 40 26.68  .32803 1.3356 170.1 19.9  52d 171
2019 05 17 22  16 18 29.396   -19 41 17.43  .32799 1.3356 170.1 19.9  53d 170
2019 05 17 23  16 18 30.160   -19 42 08.20  .32795 1.3356 170.2 19.9  53d 170
2019 05 18 00  16 18 30.921   -19 42 58.97  .32791 1.3356 170.2 19.9  53d 170
2019 05 18 01  16 18 31.681   -19 43 49.76  .32787 1.3356 170.2 19.9  53d 170
2019 05 18 02  16 18 32.439   -19 44 40.56  .32783 1.3356 170.3 19.9  53d 170